DELTA 1 DEB, 10715

Orbit data source: Space-Track

DELTA 1 DEB, 10715 is space debris in LEO originally from a launch on Thu, 29 Jul 1976 UTC launched from the Air Force Western Test Range (AFWTR). Debris objects in space refer to the collection of defunct objects orbiting the Earth. Examples of debris include non-operational satellites, rocket bodies, and fragments generated from explosions, collisions, or faulty payload assembly.

Loading next visibility...
Identifier
10715, 1976-077AL
Orbit
LEO
Last TLE update
10 hours ago
Origin
Manufacturer
Unknown
Mission
Spacecraft
Bus & Motor
Unknown
Mass
Unknown
Launch date (UTC)
1976-07-29 (49 years ago)
Launch vehicle
Unknown
Launch site
Air Force Western Test Range (AFWTR)
Object type
Payload
Rocket body
Debris
Shape & HBR
Unknown
Radar Cross Section
Medium (>0.1 m² and <1 m²)

Expand to show TLE details & history

TLE from 10 hours ago
0 DELTA 1 DEB
1 10715U 76077AL  25186.41581541  .00000009  00000-0  68445-3 0  9991
2 10715 102.4995 340.6074 0434271  55.9548   1.0144 11.63931215 81840
Epoch: 2025-07-05T09:58Z
TLE epoch observation values (Epoch: 2025-07-05T09:58:46.451Z)
Latitude
55.11717°
Longitude
-111.18642°
Altitude
1,498.198 km
Speed
7.273 km/s
True Right ascension
21h 28m 38s
True Declination
54° 58' 15"
Sunlit
Object was in daylight at epoch
Visualization orbit readout
Latitude
-54.50897°
Longitude
-74.35513°
Altitude
1,985.395 km
Speed
6.855 km/s
Apparent Right ascension
21h 45m 28s
Apparent Declination
-52° 49' 24"
Sunlit
Object is in daylight
Visualization observer readout
Local Sidereal Time
07:36:00
Azimuth
228.758° WSW
Elevation
-64.52°
Doppler factor
1
Orbital elements
Apogee altitude
2,201.274 km
Perigee altitude
1,487.13 km
Semi-major axis
8,222.339 km
Eccentricity
0.04343
Inclination
102.4995°
RAAN
340.6074°
Arg. of periapsis
55.9548°
True anomaly
Unknown
Mean anomaly
1.0144°
Eccentric anomaly
Unknown
Mean motion
2.91105 °/min
Orbital period
123.67 mins
BSTAR
0.00068445
Loading maneuver chart data...
Loading SW <> Apogee altitude chart data...
Loading historical data...
Loading historical data...
Loading historical data...
Loading historical data...
Loading historical data...
Loading historical data...
Loading historical data...

DELTA 1 DEB Visibility forecast

Observer location: undefined°, undefined°

Span
Click to sort rows by Start time (UTC) header in descending order
Start Az.
Max El. time (UTC)
Max El. Az.
Max El.
End time (UTC)
End Az.
18 mins2025-07-05 22:40:16.065Z28.021° NE2025-07-05 22:48:16.065Z95.44° ESE39.885°2025-07-05 22:58:16.065Z180.288° SSW
15 mins2025-07-06 00:43:16.065Z356.785° N2025-07-06 00:49:16.065Z303.951° NW31.521°2025-07-06 00:58:16.065Z239.742° WSW
12 mins2025-07-06 08:32:16.065Z104.046° ESE2025-07-06 08:37:16.065Z58.628° ENE26.601°2025-07-06 08:44:16.065Z0.024° NNE
15 mins2025-07-06 10:31:16.065Z179.127° S2025-07-06 10:38:16.065Z254.974° W40.842°2025-07-06 10:46:16.065Z334.322° NNW
|